When you browse on this site, cookies collect data to enhance your experience and personalize the content and advertising you see.
Visit our Privacy Policy to learn more. By continuing to use the site, you agree to this use of cookies and data.
  • In Hungary
  • List of Countries
  • For 7 days
  • Water Temperature
  • Satellite Maps
  • Weather Map
  • News
  • Weather Widgets
  • user-avatar
    Login

    Hourly Weather Dzhankoj

    Today, 21 January, Monday

    Time Temperature Precipitation Wind Pressure Humidity
    00:00 +1°C° 0 mm 3 mps 761 mmHg 85%
    01:00 +1°C° 0 mm 3 mps 761 mmHg 85%
    02:00 +2°C° 0 mm 2 mps 760 mmHg 86%
    03:00 +2°C° 0 mm 3 mps 760 mmHg 86%
    04:00 +2°C° 0 mm 3 mps 759 mmHg 87%
    05:00 +2°C° 0 mm 3 mps 759 mmHg 87%
    06:00 +3°C° 0.2 mm 3 mps 758 mmHg 86%
    07:00 +3°C° 0.2 mm 4 mps 758 mmHg 85%
    08:00 +4°C° 0.2 mm 4 mps 757 mmHg 85%
    09:00 +5°C° 0.4 mm 5 mps 757 mmHg 84%
    10:00 +6°C° 0.4 mm 5 mps 757 mmHg 83%
    11:00 +7°C° 0.4 mm 6 mps 758 mmHg 82%
    12:00 +7°C° 0 mm 6 mps 758 mmHg 84%
    13:00 +6°C° 0 mm 5 mps 758 mmHg 86%
    14:00 +6°C° 0 mm 5 mps 758 mmHg 88%
    15:00 +3°C° 0.1 mm 5 mps 758 mmHg 89%
    16:00 +2°C° 0.1 mm 5 mps 759 mmHg 89%
    17:00 +1°C° 0.1 mm 5 mps 759 mmHg 89%
    18:00 +1°C° 0.1 mm 5 mps 760 mmHg 87%
    19:00 0°C° 0.1 mm 5 mps 760 mmHg 85%
    20:00 -1°C° 0.1 mm 5 mps 761 mmHg 83%
    21:00 -2°C° 0 mm 5 mps 761 mmHg 83%
    22:00 -2°C° 0 mm 5 mps 762 mmHg 82%
    23:00 -2°C° 0 mm 5 mps 762 mmHg 82%

    Tomorrow, 22 January, Tuesday

    Time Temperature Precipitation Wind Pressure Humidity
    00:00 -4°C° 0 mm 5 mps 763 mmHg 82%
    01:00 -4°C° 0 mm 5 mps 764 mmHg 82%
    02:00 -5°C° 0 mm 5 mps 764 mmHg 83%
    03:00 -4°C° 0 mm 4 mps 764 mmHg 82%
    04:00 -5°C° 0 mm 4 mps 764 mmHg 81%
    05:00 -5°C° 0 mm 3 mps 764 mmHg 80%
    06:00 -5°C° 0 mm 3 mps 765 mmHg 79%
    07:00 -5°C° 0 mm 3 mps 765 mmHg 78%
    08:00 -5°C° 0 mm 3 mps 765 mmHg 77%
    09:00 -4°C° 0 mm 3 mps 766 mmHg 74%
    10:00 -2°C° 0 mm 3 mps 766 mmHg 71%
    11:00 -2°C° 0 mm 3 mps 766 mmHg 68%
    12:00 -1°C° 0 mm 3 mps 765 mmHg 68%
    13:00 -1°C° 0 mm 3 mps 765 mmHg 68%
    14:00 -2°C° 0 mm 4 mps 765 mmHg 68%
    15:00 -3°C° 0 mm 4 mps 765 mmHg 72%
    16:00 -3°C° 0 mm 4 mps 765 mmHg 76%
    17:00 -4°C° 0 mm 4 mps 764 mmHg 80%
    18:00 -5°C° 0 mm 5 mps 764 mmHg 79%
    19:00 -5°C° 0 mm 5 mps 764 mmHg 78%
    20:00 -4°C° 0 mm 5 mps 764 mmHg 77%
    21:00 -4°C° 0 mm 5 mps 764 mmHg 77%
    22:00 -4°C° 0 mm 5 mps 763 mmHg 77%
    23:00 -4°C° 0 mm 5 mps 763 mmHg 77%

    Day after tomorrow, 23 January, Wednesday

    Time Temperature Precipitation Wind Pressure Humidity
    00:00 -4°C° 0 mm 5 mps 763 mmHg 79%
    01:00 -4°C° 0 mm 5 mps 762 mmHg 82%
    02:00 -4°C° 0 mm 5 mps 762 mmHg 84%
    03:00 -4°C° 0 mm 5 mps 761 mmHg 86%
    04:00 -4°C° 0 mm 5 mps 761 mmHg 89%
    05:00 -4°C° 0 mm 5 mps 760 mmHg 91%
    06:00 -4°C° 0 mm 5 mps 760 mmHg 91%
    07:00 -2°C° 0 mm 5 mps 760 mmHg 92%
    08:00 -2°C° 0 mm 5 mps 760 mmHg 92%
    09:00 -1°C° 0 mm 6 mps 759 mmHg 84%
    10:00 +2°C° 0 mm 6 mps 759 mmHg 76%
    11:00 +4°C° 0 mm 6 mps 759 mmHg 68%
    12:00 +5°C° 0 mm 6 mps 758 mmHg 68%
    13:00 +7°C° 0 mm 6 mps 757 mmHg 68%
    14:00 +8°C° 0 mm 6 mps 757 mmHg 69%
    15:00 +7°C° 0 mm 6 mps 756 mmHg 74%
    16:00 +5°C° 0 mm 6 mps 756 mmHg 78%
    17:00 +4°C° 0 mm 6 mps 756 mmHg 83%
    18:00 +4°C° 0 mm 6 mps 755 mmHg 81%
    19:00 +4°C° 0 mm 6 mps 755 mmHg 79%
    20:00 +5°C° 0 mm 6 mps 755 mmHg 77%
    21:00 +5°C° 0 mm 6 mps 755 mmHg 76%
    22:00 +5°C° 0 mm 6 mps 755 mmHg 75%
    23:00 +5°C° 0 mm 6 mps 755 mmHg 74%

    24 January, Thursday

    Time Temperature Precipitation Wind Pressure Humidity
    00:00 +5°C° 0.1 mm 6 mps 755 mmHg 76%
    01:00 +7°C° 0.1 mm 6 mps 755 mmHg 77%
    02:00 +7°C° 0.1 mm 6 mps 755 mmHg 79%
    03:00 +7°C° 0.1 mm 6 mps 755 mmHg 82%
    04:00 +7°C° 0.1 mm 5 mps 755 mmHg 86%
    05:00 +7°C° 0.1 mm 5 mps 755 mmHg 89%
    06:00 +7°C° 0 mm 5 mps 755 mmHg 91%
    07:00 +7°C° 0 mm 4 mps 756 mmHg 92%
    08:00 +6°C° 0 mm 4 mps 756 mmHg 94%
    09:00 +7°C° 0 mm 4 mps 756 mmHg 90%
    10:00 +8°C° 0 mm 4 mps 756 mmHg 87%
    11:00 +10°C° 0 mm 4 mps 757 mmHg 84%
    12:00 +10°C° 0 mm 3 mps 756 mmHg 83%
    13:00 +10°C° 0 mm 2 mps 756 mmHg 83%
    14:00 +11°C° 0 mm 1 mps 756 mmHg 82%
    15:00 +9°C° 0 mm 2 mps 756 mmHg 85%
    16:00 +9°C° 0 mm 3 mps 756 mmHg 87%
    17:00 +7°C° 0 mm 4 mps 756 mmHg 90%
    18:00 +6°C° 0 mm 4 mps 756 mmHg 91%
    19:00 +6°C° 0 mm 5 mps 756 mmHg 92%
    20:00 +5°C° 0 mm 5 mps 756 mmHg 93%
    21:00 +3°C° 0 mm 6 mps 756 mmHg 93%
    22:00 +3°C° 0 mm 6 mps 756 mmHg 93%
    23:00 +2°C° 0 mm 6 mps 756 mmHg 92%

    25 January, Friday

    Time Temperature Precipitation Wind Pressure Humidity
    00:00 +2°C° 0 mm 7 mps 756 mmHg 92%
    01:00 +2°C° 0 mm 7 mps 756 mmHg 92%
    02:00 +2°C° 0 mm 7 mps 756 mmHg 91%
    03:00 0°C° 0 mm 7 mps 755 mmHg 92%
    04:00 0°C° 0 mm 7 mps 755 mmHg 92%
    05:00 0°C° 0 mm 7 mps 755 mmHg 92%
    06:00 +1°C° 0 mm 6 mps 755 mmHg 92%
    07:00 +1°C° 0 mm 6 mps 756 mmHg 92%
    08:00 +1°C° 0 mm 6 mps 756 mmHg 91%
    09:00 +1°C° 0 mm 6 mps 756 mmHg 90%
    10:00 +2°C° 0 mm 6 mps 756 mmHg 88%
    11:00 +2°C° 0 mm 6 mps 756 mmHg 87%
    12:00 +3°C° 0 mm 5 mps 756 mmHg 86%
    13:00 +3°C° 0 mm 5 mps 756 mmHg 86%
    14:00 +5°C° 0 mm 4 mps 756 mmHg 85%
    15:00 +4°C° 0 mm 4 mps 756 mmHg 88%
    16:00 +4°C° 0 mm 3 mps 756 mmHg 91%
    17:00 +4°C° 0 mm 3 mps 756 mmHg 94%
    18:00 +4°C° 0 mm 3 mps 756 mmHg 95%
    19:00 +4°C° 0 mm 3 mps 756 mmHg 96%
    20:00 +4°C° 0 mm 3 mps 756 mmHg 97%
    21:00 +4°C° 0 mm 3 mps 756 mmHg 97%
    22:00 +4°C° 0 mm 3 mps 756 mmHg 97%
    23:00 +5°C° 0 mm 2 mps 756 mmHg 98%

    26 January, Saturday

    Time Temperature Precipitation Wind Pressure Humidity
    00:00 +5°C° 0 mm 2 mps 756 mmHg 97%
    01:00 +5°C° 0 mm 2 mps 756 mmHg 97%
    02:00 +5°C° 0 mm 2 mps 756 mmHg 97%
    03:00 +5°C° 0 mm 2 mps 756 mmHg 97%
    04:00 +5°C° 0 mm 2 mps 756 mmHg 96%
    05:00 +3°C° 0 mm 3 mps 755 mmHg 96%
    06:00 +3°C° 0 mm 3 mps 755 mmHg 96%
    07:00 +4°C° 0 mm 2 mps 755 mmHg 96%
    08:00 +4°C° 0 mm 2 mps 755 mmHg 96%
    09:00 +4°C° 0 mm 3 mps 755 mmHg 92%
    10:00 +5°C° 0 mm 3 mps 755 mmHg 89%
    11:00 +7°C° 0 mm 3 mps 755 mmHg 85%
    12:00 +6°C° 0 mm 4 mps 755 mmHg 85%
    13:00 +6°C° 0 mm 4 mps 755 mmHg 84%
    14:00 +6°C° 0 mm 4 mps 754 mmHg 84%
    15:00 +5°C° 0.1 mm 5 mps 754 mmHg 87%
    16:00 +3°C° 0.1 mm 5 mps 754 mmHg 89%
    17:00 +3°C° 0.1 mm 5 mps 754 mmHg 92%
    18:00 +3°C° 0.1 mm 5 mps 754 mmHg 92%
    19:00 +4°C° 0.1 mm 4 mps 754 mmHg 93%
    20:00 +4°C° 0.1 mm 4 mps 754 mmHg 94%
    21:00 +4°C° 0.5 mm 3 mps 754 mmHg 95%
    22:00 +5°C° 0.5 mm 2 mps 753 mmHg 95%
    23:00 +6°C° 0.5 mm 1 mps 753 mmHg 96%
    Show more